Погода в Захарове

Россия / Калужская область     54°43′50″N   36°38′20″E
темп.,
°C
ветер,
м/с
пор.,
м/с
влажн.,
%
обл.,
%
осадки,
мм/ч
давл.,
гПа
погр.,
м
19 января, ср
ср1900:00−10ссз4139394 0.0 1017404
03:00−14сз3109879 0.0 1019184
06:00−18сз3710091 0.0 102084
09:00−18зсз23100100 0.0 102043
12:00−11зюз2490100 0.0 1019137
15:00−9юз379297 0.0 1017199
18:00−11юз3109258 0.0 1016187
21:00−10ююз4109684 0.0 1015219
20 января, чт
чт2000:00−9ююз41195100 0.1 1013252
03:00−7ююз41195100 0.1 1012324
06:00−6ююз4129599 0.1 1010329
09:00−6ююз51395100 0.1 1009395
12:00−5ю51594100 0.1 1008460
15:00−4ю61593100 0.1 1006642
18:00−5ю61593100 0.1 1004679
21:00−4ю61493100 0.4 1003778
21 января, пт
пт2100:00−4ю61495100 0.8 1003733
03:00−4ююз51293100 1.6 1004684
06:00−5ю41094100 0.1 1003398
09:00−6ююв4995100 0.1 1003343
12:00−5ююв4995100 0.3 1002427
15:00−4ююв4896100 0.8 1001460
18:00−4ю3797100 1.5 1001482
21:00−9ю379629 1.8 1003121
22 января, сб
сб2200:00−11ююв3996100 0.0 1004188
03:00−9юв3109685 0.1 1005287
06:00−8юв41095100 0.3 1006403
09:00−8юв499598 0.6 1008334
12:00−6юв4895100 0.4 1010393
15:00−6юв3795100 0.8 1012382
18:00−8вюв379689 0.1 1015222
21:00−15в2210088 0.1 101836
23 января, вс
вс2300:00−13вюв249785 0.1 102177
03:00−18всв2210092 0.1 102310
06:00−20всв11100100 0.0 10259
09:00−17всв119966 0.1 102715
12:00−11вюв119581 0.0 102994
15:00−9св119666 0.1 103078
18:00−17св1110086 0.0 10329
21:00−19всв11100100 0.0 10349